Date,TemperatureHighF,TemperatureAvgF,TemperatureLowF,DewpointHighF,DewpointAvgF,DewpointLowF,HumidityHigh,HumidityAvg,HumidityLow,PressureMaxIn,PressureMinIn,WindSpeedMaxMPH,WindSpeedAvgMPH,GustSpeedMaxMPH,PrecipitationSumIn
2013-1-1,26.0,12.5,-0.8,10.0,3.7,-9.0,78,68,47,30.83,30.62,13,2,24,0.00
2013-1-2,31.6,17.7,6.9,9.0,1.9,-7.0,67,51,30,30.81,30.70,10,4,14,0.00
2013-1-3,20.6,7.3,-0.4,4.0,-4.9,-10.0,72,58,35,30.91,30.80,8,2,8,0.00
2013-1-4,18.3,4.8,-4.3,4.0,-4.2,-12.0,74,67,50,30.91,30.80,6,2,9,0.00
2013-1-5,25.8,9.6,-0.8,8.0,-0.6,-8.0,78,64,45,30.93,30.82,11,3,17,0.01
2013-1-6,22.1,11.1,1.7,10.0,3.0,-4.0,78,70,56,30.84,30.53,8,2,12,0.00
2013-1-7,27.6,18.4,8.6,14.0,7.4,1.0,72,63,51,30.55,30.27,7,2,10,0.00
2013-1-8,42.8,26.9,17.7,18.0,13.1,9.0,71,58,33,30.56,30.27,9,3,11,0.00
2013-1-9,38.2,25.5,17.3,21.0,14.9,10.0,78,65,44,30.59,30.24,6,2,11,0.00
2013-1-10,37.0,28.1,15.6,22.0,16.9,10.0,83,64,46,30.22,29.66,32,5,45,0.01
2013-1-11,30.0,11.2,-1.4,21.0,5.5,-8.0,84,78,64,30.44,29.65,15,5,16,0.00
2013-1-12,6.5,-2.4,-10.3,-1.0,-9.2,-18.0,76,72,68,30.75,30.45,4,1,6,0.00
2013-1-13,8.1,-0.9,-10.5,1.0,-8.3,-19.0,75,71,60,30.82,30.74,7,2,11,0.00
2013-1-14,7.6,-4.2,-12.2,-3.0,-12.3,-20.0,74,68,60,30.91,30.77,5,1,8,0.00
2013-1-15,12.8,3.7,-5.2,4.0,-3.6,-12.0,83,72,64,30.96,30.86,7,2,12,0.00
2013-1-16,24.2,11.6,3.9,12.0,4.5,-1.0,82,74,57,30.99,30.87,5,2,8,0.05
2013-1-17,27.8,11.5,1.5,12.0,4.0,-5.0,82,72,46,31.10,30.82,13,2,15,0.00
2013-1-18,49.1,31.1,16.1,23.0,11.7,5.0,65,46,20,30.81,30.43,8,3,15,0.03
2013-1-19,45.8,31.5,21.9,18.0,7.1,1.0,54,37,17,30.52,30.44,9,3,13,0.00
2013-1-20,40.3,26.3,13.1,14.0,8.2,2.0,74,49,21,30.62,30.47,14,4,20,0.00
2013-1-21,49.2,30.4,16.7,17.0,10.2,4.0,69,45,21,30.61,30.41,10,3,17,0.00
2013-1-22,48.2,29.2,16.5,18.0,7.3,0.0,56,41,20,30.50,30.40,6,3,10,0.00
2013-1-23,47.4,33.5,25.0,20.0,12.0,5.0,59,42,19,30.49,30.34,9,2,15,0.00
2013-1-24,49.1,35.6,24.4,26.0,16.1,8.0,73,47,27,30.41,30.25,14,3,23,0.00
2013-1-25,48.0,32.3,22.1,20.0,14.8,10.0,65,51,26,30.42,30.32,8,3,11,0.00
2013-1-26,43.3,31.7,25.3,25.0,20.0,13.0,76,62,46,30.32,30.04,9,2,9,0.00
2013-1-27,40.8,32.7,25.3,28.0,23.4,18.0,80,69,52,30.02,29.83,19,4,24,0.00
2013-1-28,27.9,22.3,9.3,20.0,13.2,-2.0,84,69,43,30.15,29.96,8,2,14,0.01
2013-1-29,26.4,14.0,0.9,15.0,2.6,-7.0,84,62,28,30.53,30.13,11,3,17,0.00
2013-1-30,40.8,22.3,3.0,20.0,8.7,-6.0,73,57,29,30.48,30.28,21,3,25,0.07
2013-1-31,45.2,29.2,17.2,19.0,11.9,7.0,66,51,27,30.46,30.33,11,3,12,0.00
2013-2-1,41.5,28.9,19.5,23.0,13.2,7.0,69,53,29,30.59,30.32,14,4,23,0.00
2013-2-2,41.2,28.9,15.6,21.0,9.4,-1.0,68,46,28,30.65,30.57,10,4,14,0.00
2013-2-3,46.1,28.0,18.6,22.0,12.8,4.0,68,54,28,30.57,30.29,14,3,17,0.00
2013-2-4,48.3,33.8,23.2,21.0,11.6,6.0,56,41,22,30.33,30.15,13,3,18,0.00
2013-2-5,47.4,34.1,24.8,25.0,17.2,12.0,64,51,35,30.23,30.07,13,3,15,0.00
2013-2-6,45.2,32.2,20.2,15.0,11.5,4.0,62,44,24,30.40,30.06,9,3,17,0.00
2013-2-7,34.6,24.6,14.9,10.0,3.6,-6.0,59,42,26,30.42,30.30,11,3,13,0.00
2013-2-8,33.1,23.4,12.4,24.0,11.8,1.0,89,63,39,30.32,30.18,8,2,14,0.00
2013-2-9,28.5,24.1,13.8,24.0,20.3,9.0,89,85,77,30.18,30.03,5,1,8,0.14
2013-2-10,26.0,20.7,13.8,20.0,13.3,5.0,87,73,61,30.47,30.12,13,4,20,0.02
2013-2-11,19.7,6.6,-1.8,7.0,-2.4,-10.0,78,67,52,30.64,30.47,6,2,8,0.01
2013-2-12,26.7,8.9,-1.2,12.0,1.1,-8.0,80,71,46,30.74,30.62,8,2,11,0.00
2013-2-13,44.3,30.0,13.1,23.0,14.3,6.0,77,53,32,30.63,30.34,20,6,26,0.04
2013-2-14,27.6,18.8,6.7,16.0,10.5,1.0,81,71,55,30.71,30.34,9,3,15,0.00
2013-2-15,39.9,22.5,6.3,17.0,9.0,0.0,81,58,31,30.89,30.67,12,3,16,0.00
2013-2-16,47.0,30.7,18.4,25.0,14.7,8.0,64,53,31,30.67,30.18,10,3,13,0.00
2013-2-17,40.3,29.4,19.9,21.0,12.8,2.0,87,54,22,30.24,29.94,16,6,23,0.00
2013-2-18,32.5,22.1,13.5,9.0,3.8,-2.0,65,46,30,30.39,30.24,16,4,20,0.00
2013-2-19,33.5,20.8,11.2,14.0,9.5,5.0,76,63,39,30.38,30.10,6,2,8,0.00
2013-2-20,33.8,22.3,12.9,15.0,10.1,5.0,73,61,43,30.14,30.03,7,2,9,0.00
2013-2-21,27.0,20.6,12.3,18.0,13.3,7.0,83,74,57,30.30,30.15,9,2,10,0.01
2013-2-22,35.3,22.0,12.4,9.0,4.7,0.0,74,50,24,30.38,30.16,9,2,14,0.00
2013-2-23,37.2,26.0,16.2,24.0,13.4,4.0,89,61,32,30.22,29.92,13,3,21,0.00
2013-2-24,30.7,22.0,13.1,18.0,10.9,1.0,87,64,38,30.48,30.23,11,3,15,0.15
2013-2-25,27.6,19.0,5.2,15.0,6.0,-4.0,71,58,43,30.48,30.25,11,2,16,0.00
2013-2-26,34.9,22.9,13.6,17.0,10.3,4.0,79,60,32,30.62,30.30,10,3,16,0.00
2013-2-27,34.4,22.9,14.3,11.0,4.8,-1.0,59,47,28,30.66,30.61,12,3,20,0.00
2013-2-28,41.5,27.6,15.6,16.0,6.7,-2.0,55,42,22,30.67,30.58,13,4,16,0.00
2013-3-1,50.5,35.6,19.4,27.0,17.7,8.0,63,50,31,30.68,30.54,10,3,16,0.00
2013-3-2,56.0,39.1,23.5,27.0,21.5,16.0,73,52,28,30.60,30.15,9,2,12,0.00
2013-3-3,49.4,39.6,25.7,26.0,20.3,10.0,73,49,27,30.15,29.77,25,7,44,0.00
2013-3-4,25.7,22.2,13.1,18.0,11.6,6.0,78,64,44,30.66,30.00,14,4,18,0.00
2013-3-5,35.0,21.8,11.2,14.0,7.4,0.0,75,55,28,30.67,30.44,8,3,15,0.00
2013-3-6,48.9,33.5,18.9,32.0,15.2,7.0,83,50,29,30.44,30.01,30,5,44,0.01
2013-3-7,45.1,36.7,27.5,30.0,20.6,8.0,86,55,28,30.19,30.10,11,3,15,0.00
2013-3-8,47.7,38.1,31.2,28.0,24.2,21.0,73,58,39,30.16,29.94,7,2,13,0.00
2013-3-9,41.1,33.7,25.7,28.0,19.0,11.0,87,57,32,30.46,30.01,17,4,24,0.00
2013-3-10,49.1,35.3,19.2,22.0,12.6,7.0,68,42,24,30.53,30.29,9,3,14,0.00
2013-3-11,47.9,35.8,27.2,25.0,16.8,5.0,84,50,19,30.41,30.16,19,4,29,0.00
2013-3-12,50.5,34.3,23.9,24.0,18.7,11.0,81,57,24,30.51,30.36,10,3,14,0.00
2013-3-13,60.7,45.0,30.3,25.0,21.7,17.0,69,43,21,30.46,30.34,12,3,22,0.00
2013-3-14,62.7,48.2,35.9,26.0,21.1,12.0,60,38,14,30.38,30.16,15,4,22,0.00
2013-3-15,63.7,50.7,38.2,23.0,19.2,16.0,50,31,18,30.16,29.95,27,5,31,0.00
2013-3-16,53.8,41.9,30.4,26.0,18.6,5.0,71,44,18,30.07,29.90,20,6,25,0.00
2013-3-17,41.1,34.1,19.5,25.0,7.1,-7.0,57,33,17,30.12,29.62,56,15,73,0.00
2013-3-18,38.8,28.5,14.9,10.0,3.8,-4.0,65,38,17,30.27,30.12,38,8,52,0.00
2013-3-19,45.8,31.2,17.0,17.0,3.9,-14.0,79,39,8,30.52,30.20,24,5,40,0.00
2013-3-20,55.4,34.9,18.1,25.0,14.6,6.0,71,47,23,30.52,29.93,25,5,36,0.00
2013-3-21,44.1,35.2,28.1,28.0,19.2,-6.0,81,54,20,30.07,29.71,32,5,32,0.02
2013-3-22,28.4,21.5,13.8,18.0,10.2,-5.0,87,65,26,30.39,30.05,20,4,31,0.01
2013-3-23,21.6,17.7,10.5,15.0,11.0,3.0,85,75,57,30.60,30.40,8,2,11,0.06
2013-3-24,26.7,16.9,5.2,9.0,2.9,-5.0,72,55,38,30.70,30.60,9,3,13,0.01
2013-3-25,36.6,24.1,9.2,14.0,3.4,-3.0,64,43,25,30.70,30.44,21,5,22,0.00
2013-3-26,45.7,34.9,25.1,23.0,12.2,4.0,64,41,24,30.43,30.16,10,4,14,0.00
2013-3-27,53.3,40.0,26.9,23.0,19.7,15.0,71,47,22,30.27,30.17,13,3,25,0.00
2013-3-28,59.3,46.0,32.9,26.0,20.0,17.0,56,37,20,30.29,30.14,12,4,17,0.00
2013-3-29,59.6,49.0,38.0,28.0,23.6,17.0,64,40,19,30.22,30.13,19,4,29,0.00
2013-3-30,52.8,40.1,29.4,34.0,28.0,23.0,88,64,37,30.38,30.22,12,3,16,0.00
2013-3-31,59.9,46.6,33.5,24.0,18.2,11.0,66,35,17,30.36,30.14,10,5,21,0.00
2013-4-1,52.2,41.3,26.7,25.0,22.6,20.0,76,50,30,30.25,30.18,9,3,15,0.00
2013-4-2,57.3,42.8,28.7,24.0,17.8,9.0,74,41,16,30.28,30.18,16,4,23,0.00
2013-4-3,61.8,48.4,33.8,27.0,18.5,9.0,53,32,17,30.23,30.12,24,4,24,0.00
2013-4-4,64.0,51.4,34.9,28.0,23.9,20.0,64,37,19,30.23,29.96,19,4,21,0.00
2013-4-5,59.6,51.0,35.3,32.0,23.4,15.0,55,35,21,29.99,29.73,23,7,42,0.00
2013-4-6,56.0,44.4,31.0,32.0,20.9,17.0,61,42,22,30.06,29.95,32,7,43,0.00
2013-4-7,56.9,44.4,33.2,31.0,22.9,17.0,64,45,22,29.96,29.73,27,8,38,0.00
2013-4-8,41.1,27.2,15.7,30.0,21.6,12.0,90,80,53,30.38,29.75,14,4,16,0.06
2013-4-9,22.9,16.2,10.4,17.0,11.6,6.0,85,82,75,30.73,30.38,8,3,13,0.24
2013-4-10,27.8,17.1,5.2,22.0,12.2,0.0,86,81,76,30.72,30.36,6,2,10,0.10
2013-4-11,43.8,32.3,19.9,32.0,24.7,16.0,86,74,53,30.37,30.15,12,3,15,0.00
2013-4-12,42.8,34.2,28.8,30.0,25.2,19.0,91,71,50,30.28,30.06,10,4,14,0.04
2013-4-13,50.7,38.7,27.8,34.0,22.3,5.0,81,54,27,30.06,29.53,42,13,47,0.00
2013-4-14,40.2,32.2,22.5,23.0,9.6,-6.0,87,47,14,30.05,29.73,22,6,32,0.00
2013-4-15,30.1,24.8,21.0,22.0,20.1,17.0,88,82,67,30.34,30.00,9,3,14,0.22
2013-4-16,25.4,20.7,18.4,20.0,16.6,15.0,87,84,76,30.56,30.33,10,3,14,0.18
2013-4-17,28.5,20.5,11.9,18.0,13.4,7.0,86,75,49,30.65,30.54,7,2,11,0.02
2013-4-18,38.3,25.4,8.8,19.0,10.0,-1.0,80,55,25,30.64,30.51,8,3,11,0.00
2013-4-19,48.8,38.4,26.0,29.0,18.7,11.0,71,47,29,30.52,30.06,16,4,21,0.00
2013-4-20,52.9,42.6,30.9,28.0,24.5,17.0,77,52,25,30.16,30.03,17,4,30,0.00
2013-4-21,55.3,43.7,31.3,29.0,22.5,12.0,76,47,18,30.19,30.00,42,7,44,0.00
2013-4-22,32.4,23.6,19.4,24.0,19.6,16.0,88,84,72,30.69,30.12,12,5,17,0.13
2013-4-23,37.8,22.8,6.9,19.0,11.3,0.0,87,64,26,30.73,30.53,6,2,10,0.06
2013-4-24,50.2,36.1,21.3,25.0,14.5,8.0,73,44,21,30.58,30.32,14,3,28,0.00
2013-4-25,59.2,45.0,28.5,20.0,11.9,1.0,53,29,10,30.32,30.07,20,5,23,0.00
2013-4-26,65.2,52.8,34.7,21.0,16.1,9.0,51,25,11,30.30,30.20,20,6,26,0.00
2013-4-27,70.1,57.6,41.8,28.0,19.9,13.0,43,25,11,30.26,29.99,21,5,28,0.00
2013-4-28,66.6,57.3,43.2,29.0,23.0,16.0,51,28,16,30.00,29.87,22,7,32,0.00
2013-4-29,63.5,51.2,33.8,30.0,23.2,15.0,63,36,21,29.88,29.63,32,7,43,0.00
2013-4-30,52.8,36.8,27.8,32.0,26.8,18.0,91,69,25,30.34,29.74,20,5,25,0.00
2013-5-1,34.9,27.7,24.4,26.0,21.6,13.0,91,78,56,30.98,30.35,8,2,13,0.39
2013-5-2,50.5,34.9,18.6,24.0,14.3,4.0,67,46,15,31.06,30.66,13,3,15,0.00
2013-5-3,58.0,48.0,34.0,30.0,19.6,12.0,61,35,17,30.65,30.21,11,3,14,0.00
2013-5-4,50.2,43.1,38.3,38.0,35.2,28.0,89,75,45,30.37,30.22,11,3,18,0.21
2013-5-5,55.3,46.5,35.6,38.0,31.2,24.0,86,59,32,30.37,30.19,9,3,14,0.01
2013-5-6,65.3,53.3,38.9,35.0,28.8,25.0,64,41,23,30.21,29.97,10,3,17,0.00
2013-5-7,63.7,53.8,41.9,38.0,33.3,29.0,69,48,28,30.03,29.91,15,3,28,0.00
2013-5-8,62.4,54.7,45.7,41.0,33.6,26.0,76,47,25,30.19,30.03,16,6,22,0.03
2013-5-9,67.6,55.3,40.9,38.0,31.9,25.0,72,44,22,30.24,30.13,21,4,30,0.00
2013-5-10,66.9,55.2,39.5,37.0,31.5,21.0,75,45,18,30.40,30.23,17,4,26,0.00
2013-5-11,69.4,55.5,40.3,41.0,33.0,24.0,76,47,19,30.43,30.22,10,3,24,0.00
2013-5-12,79.2,65.3,46.8,39.0,31.9,28.0,60,32,16,30.27,30.03,15,4,18,0.00
2013-5-13,81.2,68.8,52.0,38.0,31.4,26.0,51,27,13,30.06,29.81,22,6,26,0.00
2013-5-14,78.8,68.5,54.1,34.0,28.3,22.0,45,24,13,29.87,29.76,24,7,33,0.00
2013-5-15,74.6,62.4,51.3,43.0,32.8,26.0,62,34,19,29.91,29.75,29,6,37,0.00
2013-5-16,65.0,56.9,48.9,46.0,42.0,36.0,79,59,37,29.89,29.77,14,3,52,0.12
2013-5-17,70.9,57.0,46.4,48.0,39.7,24.0,85,56,17,29.89,29.76,27,6,39,0.00
2013-5-18,65.0,53.1,44.6,45.0,39.4,30.0,88,62,29,29.97,29.80,22,5,27,0.66
2013-5-19,51.4,44.8,41.6,43.0,40.2,38.0,91,84,64,30.18,29.97,10,2,15,0.67
2013-5-20,56.7,48.4,41.5,43.0,38.5,34.0,88,70,42,30.25,30.16,14,4,23,0.16
2013-5-21,61.3,51.8,40.3,41.0,37.3,34.0,85,60,37,30.24,29.94,11,3,16,0.01
2013-5-22,69.4,54.4,40.8,48.0,39.9,35.0,81,60,39,29.98,29.77,10,3,21,0.00
2013-5-23,73.3,56.3,46.1,46.0,40.4,22.0,84,59,15,29.91,29.62,11,4,21,0.00
2013-5-24,70.4,57.0,43.5,39.0,24.0,7.0,76,34,9,30.00,29.76,15,4,23,0.00
2013-5-25,76.1,62.2,48.3,34.0,22.6,14.0,41,24,10,29.98,29.79,20,5,36,0.00
2013-5-26,75.1,62.0,49.1,40.0,30.4,16.0,56,33,11,29.91,29.74,20,4,27,0.00
2013-5-27,68.6,59.6,48.5,41.0,28.1,19.0,55,33,16,29.86,29.73,21,6,31,0.00
2013-5-28,60.4,52.6,44.5,45.0,38.0,28.0,83,59,38,29.81,29.67,17,3,25,0.05
2013-5-29,54.4,48.1,41.9,43.0,40.6,37.0,88,76,59,29.82,29.72,11,3,17,0.13
2013-5-30,60.4,49.8,36.3,42.0,29.2,21.0,85,51,23,29.97,29.79,37,7,38,0.00
2013-5-31,61.8,50.3,34.9,36.0,26.8,18.0,75,45,21,30.32,29.96,30,7,35,0.00
2013-6-1,65.6,52.1,39.1,38.0,35.6,30.0,87,57,28,30.36,30.16,13,4,19,0.00
2013-6-2,80.1,60.3,39.9,42.0,33.1,21.0,78,42,13,30.16,29.63,17,5,32,0.00
2013-6-3,66.8,59.9,44.5,36.0,22.5,7.0,51,26,12,30.00,29.61,20,7,28,0.00
2013-6-4,57.6,48.3,35.2,37.0,33.4,27.0,81,58,43,30.37,30.00,13,4,18,0.00
2013-6-5,66.9,53.4,38.5,38.0,34.3,30.0,82,52,27,30.37,30.12,9,3,15,0.00
2013-6-6,74.9,59.9,40.9,48.0,36.6,30.0,72,45,22,30.18,30.04,13,3,15,0.00
2013-6-7,79.9,65.2,46.5,46.0,38.6,31.0,72,41,21,30.09,29.69,16,4,23,0.00
2013-6-8,77.2,64.9,50.5,43.0,37.4,28.0,71,39,20,29.94,29.68,16,4,23,0.00
2013-6-9,86.7,66.4,43.8,45.0,36.3,30.0,73,39,13,29.99,29.77,19,5,28,0.00
2013-6-10,88.8,73.8,60.1,47.0,35.5,25.0,55,27,10,29.79,29.59,23,5,52,0.00
2013-6-11,77.4,66.1,49.2,49.0,36.9,28.0,64,37,18,29.97,29.66,31,6,51,0.00
2013-6-12,81.8,66.4,48.2,44.0,37.9,23.0,67,39,12,30.03,29.84,13,4,23,0.00
2013-6-13,84.3,67.3,50.1,50.0,35.1,19.0,81,40,9,29.93,29.66,28,6,54,0.00
2013-6-14,71.3,60.2,45.1,38.0,21.5,3.0,60,28,7,30.12,29.78,30,8,42,0.00
2013-6-15,75.3,59.3,40.5,36.0,26.5,16.0,47,30,16,30.16,29.96,10,3,17,0.00
2013-6-16,81.6,66.7,47.4,40.0,26.2,19.0,47,23,10,30.08,29.91,19,3,28,0.00
2013-6-17,80.5,65.5,49.2,43.0,38.2,31.0,69,39,17,30.09,29.92,9,4,27,0.00
2013-6-18,79.6,66.9,49.2,45.0,38.0,26.0,71,38,15,30.00,29.74,17,4,31,0.02
2013-6-19,83.4,67.0,49.2,42.0,28.7,7.0,65,30,9,29.77,29.50,34,11,55,0.00
2013-6-20,73.2,60.3,39.2,33.0,20.0,6.0,56,24,11,29.91,29.68,29,6,41,0.00
2013-6-21,77.4,63.5,47.6,38.0,26.9,16.0,50,28,10,29.96,29.81,18,5,34,0.00
2013-6-22,72.8,61.1,47.3,49.0,36.8,18.0,74,45,13,30.02,29.77,25,6,33,0.07
2013-6-23,78.5,61.6,42.2,39.0,30.1,22.0,72,36,14,30.03,29.76,19,5,31,0.00
2013-6-24,81.6,71.1,55.9,38.0,29.7,22.0,49,23,11,29.76,29.53,34,8,43,0.00
2013-6-25,77.4,66.5,51.4,44.0,36.8,29.0,63,36,20,29.91,29.66,17,6,30,0.00
2013-6-26,85.1,70.1,53.2,46.0,39.6,36.0,60,36,18,30.05,29.91,12,4,26,0.00
2013-6-27,92.5,74.2,53.5,48.0,39.2,30.0,64,33,11,30.12,30.02,16,4,22,0.00
2013-6-28,89.3,74.3,57.8,50.0,44.7,38.0,64,37,19,30.15,30.00,13,4,18,0.00
2013-6-29,85.1,70.4,57.6,54.0,47.8,42.0,66,47,24,30.12,29.98,19,3,32,0.05
2013-6-30,85.9,71.0,56.3,52.0,46.0,34.0,72,44,19,30.12,30.01,18,4,23,0.01
2013-7-1,84.0,71.3,55.4,57.0,47.0,42.0,71,45,26,30.16,30.05,10,3,17,0.00
2013-7-2,86.1,73.1,55.7,50.0,41.9,34.0,68,36,16,30.13,29.96,11,3,19,0.00
2013-7-3,86.1,74.2,59.0,61.0,43.5,31.0,56,35,20,29.97,29.78,12,3,16,0.00
2013-7-4,85.7,71.4,57.0,56.0,47.7,39.0,84,46,22,29.85,29.70,23,4,33,0.04
2013-7-5,83.8,70.3,56.7,57.0,50.6,36.0,84,54,18,29.82,29.68,21,4,25,0.00
2013-7-6,83.8,67.1,55.7,53.0,47.3,35.0,84,53,19,29.98,29.78,15,4,27,0.04
2013-7-7,82.2,68.6,51.6,53.0,46.6,36.0,88,51,21,29.97,29.86,29,6,38,0.03
2013-7-8,86.1,69.1,57.0,50.0,44.3,30.0,71,45,15,29.98,29.88,31,5,43,0.00
2013-7-9,89.3,72.9,55.1,55.0,39.1,27.0,55,32,11,30.07,29.96,11,3,27,0.00
2013-7-10,90.3,74.6,56.5,50.0,39.8,25.0,64,34,10,30.07,29.85,11,3,15,0.00
2013-7-11,90.3,75.5,57.0,49.0,37.0,28.0,61,27,12,29.88,29.65,19,4,23,0.00
2013-7-12,80.5,70.6,62.4,53.0,44.3,33.0,67,42,18,29.90,29.72,20,4,23,0.00
2013-7-13,81.2,71.5,55.9,49.0,40.2,34.0,67,34,19,30.00,29.89,17,4,26,0.00
2013-7-14,82.2,70.2,59.5,54.0,49.3,41.0,72,49,27,30.12,29.96,18,4,22,0.00
2013-7-15,89.7,73.2,55.7,57.0,45.8,36.0,70,41,16,30.02,29.80,9,2,16,0.00
2013-7-16,87.2,73.8,58.9,54.0,45.7,36.0,66,39,22,30.06,29.86,25,4,29,0.00
2013-7-17,87.2,71.9,56.3,54.0,50.0,46.0,77,50,25,30.09,29.95,33,5,40,0.04
2013-7-18,91.0,77.3,60.2,54.0,44.5,26.0,70,37,10,30.08,29.87,14,4,22,0.00
2013-7-19,90.7,76.6,63.2,50.0,45.3,35.0,55,35,18,30.00,29.75,12,4,23,0.00
2013-7-20,90.1,75.4,62.4,47.0,35.2,24.0,46,25,10,29.89,29.68,13,4,21,0.00
2013-7-21,91.8,76.9,56.2,42.0,30.5,11.0,50,21,5,29.81,29.67,15,4,21,0.00
2013-7-22,92.9,78.1,63.4,41.0,25.8,7.0,38,18,4,29.83,29.72,17,6,24,0.00
2013-7-23,86.3,72.2,55.7,40.0,29.4,14.0,41,21,10,30.03,29.82,9,3,16,0.00
2013-7-24,84.3,72.2,59.0,48.0,40.4,29.0,46,32,23,30.06,29.87,27,5,34,0.00
2013-7-25,79.6,68.8,57.3,47.0,43.3,35.0,62,41,21,30.13,29.90,17,4,23,0.00
2013-7-26,88.6,69.5,51.6,46.0,40.8,34.0,70,39,15,30.19,29.99,11,4,16,0.00
2013-7-27,78.5,66.8,52.8,53.0,43.2,37.0,64,44,26,30.04,29.89,8,3,21,0.00
2013-7-28,83.0,67.1,51.1,49.0,42.1,34.0,72,43,18,29.90,29.75,20,3,30,0.00
2013-7-29,79.2,61.6,48.0,47.0,42.5,36.0,74,52,21,30.13,29.88,34,5,50,0.04
2013-7-30,84.5,67.0,51.0,46.0,41.4,25.0,75,44,12,30.20,30.06,20,5,27,0.00
2013-7-31,80.3,64.4,51.0,55.0,45.7,40.0,76,53,25,30.24,30.08,8,2,11,0.05
2013-8-1,88.8,72.2,52.9,50.0,42.2,36.0,69,37,15,30.13,29.71,37,9,56,0.00
2013-8-2,84.0,71.9,55.4,50.0,35.3,18.0,71,33,9,29.91,29.71,39,8,56,0.00
2013-8-3,88.6,71.4,55.0,50.0,36.1,20.0,58,32,8,30.01,29.85,16,4,23,0.00
2013-8-4,89.3,72.7,52.5,51.0,37.0,19.0,64,33,9,30.01,29.82,11,4,21,0.00
2013-8-5,88.2,74.6,57.8,53.0,37.1,16.0,62,32,7,29.95,29.78,28,8,36,0.00
2013-8-6,87.8,70.8,57.5,42.0,34.7,18.0,46,29,8,29.98,29.80,18,4,20,0.00
2013-8-7,86.3,68.9,52.0,46.0,39.0,30.0,66,37,14,30.00,29.81,16,3,29,0.00
2013-8-8,81.2,66.4,52.6,48.0,39.7,26.0,64,40,13,30.05,29.90,17,4,29,0.00
2013-8-9,73.9,64.2,53.3,49.0,42.5,39.0,60,46,31,30.15,30.04,10,3,15,0.00
2013-8-10,81.6,66.9,49.2,48.0,40.8,30.0,74,43,16,30.14,30.00,15,3,19,0.00
2013-8-11,82.0,69.8,55.9,46.0,35.2,28.0,59,30,14,30.11,29.99,18,4,21,0.00
2013-8-12,81.2,67.6,53.5,42.0,35.6,29.0,58,33,15,30.10,30.01,18,4,27,0.00
2013-8-13,78.3,65.7,52.9,42.0,35.9,32.0,52,34,22,30.17,30.07,14,4,25,0.00
2013-8-14,82.2,66.2,47.4,44.0,33.9,25.0,59,33,12,30.18,29.99,13,4,25,0.00
2013-8-15,85.1,68.6,50.7,43.0,33.1,25.0,47,29,13,30.10,29.96,9,3,14,0.00
2013-8-16,89.3,71.9,53.5,44.0,30.0,20.0,41,23,9,30.07,29.91,15,4,17,0.00
2013-8-17,91.6,78.9,59.8,36.0,25.6,18.0,30,15,9,29.98,29.80,21,4,28,0.00
2013-8-18,90.3,77.1,63.5,44.0,34.7,29.0,35,22,12,29.92,29.79,18,3,26,0.00
2013-8-19,91.6,74.4,55.4,43.0,34.2,27.0,48,26,10,29.98,29.82,14,4,26,0.00
2013-8-20,85.5,75.0,66.1,48.0,38.2,29.0,50,27,20,29.94,29.82,24,6,31,0.00
2013-8-21,80.5,72.5,59.8,51.0,41.8,37.0,53,34,22,30.04,29.85,21,5,30,0.00
2013-8-22,84.7,71.5,55.0,49.0,44.8,39.0,68,40,20,30.09,29.91,14,4,22,0.00
2013-8-23,85.1,70.6,58.6,51.0,44.4,40.0,61,41,20,29.94,29.75,31,4,45,0.02
2013-8-24,83.0,70.5,58.6,50.0,42.6,32.0,66,40,18,29.94,29.82,16,4,18,0.00
2013-8-25,84.1,72.3,58.7,45.0,39.9,35.0,55,33,19,30.02,29.89,29,6,38,0.00
2013-8-26,80.7,72.2,58.9,49.0,42.5,36.0,57,35,26,29.99,29.90,24,6,37,0.00
2013-8-27,82.0,70.5,57.6,50.0,44.6,38.0,63,42,25,30.03,29.90,16,3,20,0.00
2013-8-28,87.2,72.6,57.8,49.0,42.2,35.0,61,37,16,29.99,29.89,19,5,29,0.00
2013-8-29,84.5,70.9,56.7,57.0,42.1,34.0,63,37,21,30.09,29.98,11,3,26,0.05
2013-8-30,87.6,70.9,53.5,52.0,42.4,36.0,70,40,16,30.10,29.92,17,3,35,0.00
2013-8-31,85.7,71.7,59.6,41.0,37.5,33.0,45,30,16,30.06,29.89,16,4,19,0.00
2013-9-1,82.2,67.5,48.3,47.0,39.1,34.0,70,38,21,30.10,29.95,8,3,10,0.00
2013-9-2,83.6,69.8,61.5,61.0,44.6,32.0,77,43,23,30.01,29.83,18,2,52,0.09
2013-9-3,84.9,71.5,58.7,57.0,50.3,45.0,78,51,26,30.04,29.92,12,4,16,0.00
2013-9-4,88.4,71.9,56.5,55.0,48.8,38.0,79,48,17,30.10,29.98,10,3,14,0.00
2013-9-5,90.3,75.0,61.2,54.0,44.1,37.0,61,36,16,30.05,29.89,15,4,27,0.00
2013-9-6,83.2,73.5,63.5,55.0,45.1,39.0,67,37,26,30.00,29.84,13,4,26,0.05
2013-9-7,82.2,68.4,54.1,53.0,48.6,44.0,79,52,28,30.05,29.90,33,3,36,0.01
2013-9-8,69.6,60.7,51.4,54.0,49.0,44.0,89,67,47,30.01,29.89,14,3,21,0.03
2013-9-9,73.0,60.6,46.2,49.0,43.9,36.0,83,58,27,30.08,29.93,16,3,18,0.00
2013-9-10,70.4,61.5,55.4,49.0,44.4,42.0,71,55,37,30.18,30.07,9,2,15,0.00
2013-9-11,62.0,57.3,54.8,52.0,47.7,43.0,87,71,53,30.34,30.18,16,4,23,0.44
2013-9-12,58.1,55.6,51.7,54.0,51.4,49.0,92,86,72,30.37,30.20,14,3,16,0.57
2013-9-13,69.1,58.0,51.1,54.0,51.5,48.0,92,79,60,30.19,29.92,7,2,10,0.00
2013-9-14,65.0,56.9,51.1,54.0,51.7,48.0,90,83,61,30.12,29.92,10,3,14,0.12
2013-9-15,60.7,56.6,54.1,56.0,53.4,52.0,93,89,82,30.20,30.12,10,2,14,0.32
2013-9-16,73.7,61.8,49.5,57.0,50.3,46.0,92,68,49,30.14,29.92,10,3,14,0.00
2013-9-17,79.6,62.2,51.1,53.0,45.4,39.0,85,57,27,29.94,29.66,17,4,34,0.13
2013-9-18,66.0,55.0,41.8,48.0,37.4,22.0,88,58,21,30.06,29.73,37,7,50,0.10
2013-9-19,60.1,49.2,37.0,39.0,29.0,23.0,71,48,29,30.30,30.07,12,4,15,0.00
2013-9-20,68.1,51.1,36.9,39.0,31.6,27.0,76,51,24,30.30,30.04,8,2,12,0.00
2013-9-21,79.8,59.8,42.8,40.0,28.9,20.0,67,36,12,30.04,29.69,19,4,22,0.00
2013-9-22,67.1,59.4,51.9,41.0,36.3,32.0,62,43,30,29.68,29.56,35,6,54,0.00
2013-9-23,66.1,54.7,39.9,37.0,30.1,25.0,71,42,21,30.07,29.61,15,4,20,0.00
2013-9-24,72.3,55.3,37.5,34.0,26.7,18.0,72,39,13,30.13,29.77,31,5,37,0.00
2013-9-25,62.0,49.0,41.6,41.0,34.8,22.0,86,60,28,29.79,29.49,22,4,22,0.01
2013-9-26,44.2,38.5,32.5,37.0,33.4,29.0,93,82,59,30.15,29.77,6,1,9,0.35
2013-9-27,36.3,33.4,32.4,32.0,31.0,30.0,93,90,81,30.27,30.12,7,0,8,0.82
2013-9-28,42.3,38.7,40.5,34.0,25.4,-99.9,77,70,71,30.29,0.00,4,-61,7,0.00
2013-9-29,64.5,52.2,37.0,38.0,31.7,26.0,78,49,24,30.24,29.90,21,4,41,0.00
2013-9-30,69.8,59.0,44.2,36.0,31.9,27.0,65,38,22,29.90,29.71,22,6,45,0.00
2013-10-1,70.8,53.2,38.8,37.0,32.8,29.0,74,49,24,30.01,29.87,17,4,21,0.00
2013-10-2,54.8,48.2,39.3,40.0,33.8,26.0,87,60,36,30.10,29.96,8,3,15,0.30
2013-10-3,40.3,37.7,31.9,36.0,34.6,30.0,92,88,85,30.22,29.93,13,3,15,0.31
2013-10-4,30.1,26.1,23.9,28.0,23.9,21.0,91,91,90,30.73,30.69,8,3,11,0.26
2013-10-5,41.9,28.3,15.9,32.0,23.0,11.0,90,81,60,30.73,30.67,5,2,8,0.37
2013-10-6,55.9,38.7,27.5,38.0,30.3,23.0,87,73,47,30.71,30.44,6,2,9,0.02
2013-10-7,57.2,41.7,30.0,43.0,31.8,23.0,83,68,53,30.44,30.03,9,2,11,0.00
2013-10-8,65.2,48.5,36.6,39.0,29.2,18.0,72,51,17,30.03,29.83,12,3,24,0.00
2013-10-9,47.1,43.9,40.9,38.0,35.2,31.0,86,72,56,30.13,30.00,7,2,16,0.00
2013-10-10,46.4,42.3,36.8,40.0,36.8,33.0,90,81,67,30.07,29.83,5,1,7,0.03
2013-10-11,48.2,41.0,30.7,40.0,34.1,27.0,92,77,55,30.27,29.84,12,3,18,0.03
2013-10-12,47.0,36.3,26.4,32.0,26.8,18.0,86,70,47,30.36,30.27,7,2,9,0.00
2013-10-13,47.3,39.2,32.1,37.0,31.6,27.0,90,75,55,30.34,30.19,8,2,12,0.15
2013-10-14,38.2,34.6,29.4,34.0,30.1,27.0,91,84,64,30.61,30.23,11,3,22,0.13
2013-10-15,40.9,31.8,25.0,28.0,24.6,21.0,91,76,49,30.67,30.50,7,2,10,0.10
2013-10-16,50.5,37.3,26.6,31.0,21.6,10.0,82,55,25,30.49,30.28,13,3,19,0.00
2013-10-17,40.5,33.4,27.8,31.0,27.4,24.0,91,79,62,30.46,30.28,10,3,14,0.02
2013-10-18,45.7,34.1,24.5,27.0,22.7,16.0,90,65,33,30.57,30.39,9,3,14,0.07
2013-10-19,60.9,45.5,31.5,33.0,23.5,18.0,65,44,23,30.39,30.09,11,4,15,0.00
2013-10-20,45.4,38.7,30.3,34.0,29.4,26.0,89,70,51,30.35,30.07,11,3,16,0.08
2013-10-21,59.2,41.2,27.9,30.0,24.9,21.0,78,57,25,30.46,30.32,10,3,14,0.00
2013-10-22,63.4,47.5,34.6,35.0,28.3,25.0,72,50,27,30.40,30.24,11,3,21,0.00
2013-10-23,61.8,47.8,36.2,31.0,23.5,13.0,67,41,23,30.32,30.23,12,3,18,0.00
2013-10-24,54.8,42.0,31.0,37.0,31.6,24.0,83,68,47,30.43,30.33,7,3,10,0.00
2013-10-25,64.2,45.8,29.8,32.0,26.2,20.0,76,50,22,30.47,30.36,14,4,16,0.00
2013-10-26,63.1,46.9,31.5,32.0,26.1,21.0,74,46,26,30.47,30.26,11,3,16,0.00
2013-10-27,63.2,47.6,35.0,28.0,21.8,16.0,55,39,16,30.25,29.88,17,4,22,0.00
2013-10-28,45.1,32.2,25.8,33.0,26.9,23.0,92,82,47,30.29,30.00,14,1,17,0.18
2013-10-29,30.0,25.2,18.8,25.0,21.7,15.0,91,87,78,30.32,30.25,0,0,0,0.06
2013-10-30,41.1,30.0,23.0,30.0,24.9,19.0,90,82,65,30.29,30.21,6,1,9,0.24
2013-10-31,50.7,40.9,30.6,31.0,25.7,17.0,71,56,35,30.22,30.09,11,3,16,0.04
2013-11-1,49.2,38.4,30.3,25.0,21.0,12.0,76,52,28,30.41,30.19,11,3,18,0.00
2013-11-2,52.9,38.0,26.3,26.0,19.9,16.0,68,51,27,30.40,29.89,7,2,13,0.00
2013-11-3,45.7,36.4,20.3,27.0,12.8,0.0,71,41,17,30.15,29.77,20,6,35,0.00
2013-11-4,34.7,25.1,17.2,13.0,8.0,3.0,71,50,28,30.41,30.15,8,2,13,0.00
2013-11-5,36.5,25.0,14.1,13.0,5.9,-1.0,67,46,26,30.52,30.41,8,3,15,0.00
2013-11-6,31.3,26.2,22.7,17.0,14.6,11.0,70,62,54,30.65,30.50,6,2,9,0.00
2013-11-7,53.8,38.2,25.8,27.0,23.0,18.0,73,56,32,30.65,30.02,22,4,33,0.00
2013-11-8,54.2,46.5,30.3,26.0,20.1,14.0,65,37,21,30.13,29.90,23,8,40,0.00
2013-11-9,49.4,37.1,28.8,25.0,22.8,20.0,74,58,36,30.46,30.13,7,3,10,0.00
2013-11-10,59.9,43.7,29.1,30.0,24.0,21.0,75,49,26,30.47,30.35,19,3,24,0.00
2013-11-11,53.5,39.4,27.9,28.0,23.8,20.0,83,56,28,30.77,30.35,11,3,15,0.00
2013-11-12,55.4,34.8,25.0,32.0,25.2,20.0,85,70,35,30.81,30.63,7,2,10,0.00
2013-11-13,59.0,40.4,32.2,34.0,27.5,19.0,78,63,26,30.62,30.29,17,3,27,0.00
2013-11-14,49.9,38.2,30.0,22.0,17.9,14.0,63,46,25,30.35,29.90,10,3,14,0.00
2013-11-15,46.5,33.2,21.9,20.0,15.4,8.0,66,50,25,29.91,29.69,15,3,22,0.00
2013-11-16,42.9,31.4,22.1,20.0,13.9,5.0,68,50,26,29.82,29.51,39,8,58,0.00
2013-11-17,39.3,28.8,17.5,13.0,7.1,3.0,66,42,24,30.36,29.83,13,4,15,0.00
2013-11-18,51.6,35.8,22.1,19.0,13.7,10.0,62,43,22,30.43,30.14,10,3,13,0.00
2013-11-19,52.0,39.1,28.2,23.0,19.6,16.0,67,47,29,30.13,29.91,17,4,21,0.00
2013-11-20,51.4,33.4,15.7,26.0,18.9,11.0,83,59,28,30.45,29.90,18,5,26,0.00
2013-11-21,19.7,11.4,0.1,12.0,6.0,-7.0,83,79,71,31.12,30.45,6,2,10,0.03
2013-11-22,22.9,6.7,-3.1,13.0,-0.5,-10.0,79,72,64,31.27,31.11,6,2,8,0.00
2013-11-23,28.7,12.6,3.0,13.0,4.0,-4.0,78,69,52,31.26,30.86,7,3,8,0.00
2013-11-24,33.4,17.8,4.7,19.0,8.3,-3.0,79,67,35,30.85,30.57,8,2,9,0.01
2013-11-25,41.5,31.1,22.7,20.0,14.5,9.0,72,52,33,30.71,30.59,9,3,16,0.01
2013-11-26,42.1,28.7,18.6,22.0,17.4,13.0,78,64,43,30.75,30.56,6,2,9,0.00
2013-11-27,46.8,31.4,24.1,29.0,21.2,17.0,82,67,42,30.56,30.36,9,2,16,0.00
2013-11-28,40.9,30.5,24.2,26.0,22.3,18.0,82,72,51,30.47,30.40,5,2,8,0.00
2013-11-29,52.5,32.9,23.5,25.0,19.6,15.0,81,60,31,30.50,30.40,9,3,10,0.00
2013-11-30,47.1,34.3,25.4,23.0,18.4,15.0,67,54,31,30.47,30.36,10,3,13,0.00
2013-12-1,49.6,40.1,26.3,24.0,20.8,17.0,73,48,29,30.40,29.98,26,6,37,0.00
2013-12-2,50.5,44.8,29.8,27.0,22.4,18.0,76,43,28,29.97,29.54,50,26,64,0.00
2013-12-3,29.4,12.5,1.7,24.0,7.3,-5.0,86,79,74,30.37,29.61,12,4,19,0.00
2013-12-4,3.0,-4.2,-14.8,-5.0,-12.0,-23.0,75,69,65,30.81,30.37,8,2,11,0.00
2013-12-5,1.7,-8.8,-17.5,-8.0,-16.9,-26.0,72,67,61,30.91,30.79,8,2,8,0.00
2013-12-6,1.5,-7.7,-13.8,-9.0,-16.0,-22.0,72,67,62,30.96,30.89,5,1,7,0.00
2013-12-7,-0.4,-9.3,-19.3,-9.0,-17.6,-28.0,71,67,62,30.94,30.62,6,1,7,0.00
2013-12-8,9.3,-3.4,-15.1,0.0,-11.1,-23.0,77,70,64,30.83,30.62,11,1,11,0.00
2013-12-9,24.8,7.6,-10.3,6.0,-6.3,-19.0,70,55,32,30.82,30.66,12,3,13,0.02
2013-12-10,27.6,15.0,6.3,9.0,3.1,-2.0,68,60,45,30.74,30.51,9,3,18,0.01
2013-12-11,31.6,15.1,4.8,11.0,2.4,-4.0,72,58,36,30.81,30.72,8,2,11,0.01
2013-12-12,34.4,19.3,9.5,17.0,8.3,2.0,75,63,43,30.79,30.42,8,2,13,0.01
2013-12-13,36.0,23.8,17.3,20.0,12.2,7.0,73,62,41,30.63,30.36,8,2,14,0.00
2013-12-14,41.2,30.6,17.7,20.0,12.6,5.0,63,48,38,30.66,30.50,14,4,22,0.00
2013-12-15,52.9,35.3,26.3,22.0,17.1,13.0,62,49,24,30.50,30.36,13,3,14,0.00
2013-12-16,37.6,32.1,27.5,14.0,13.2,12.0,56,46,35,30.57,30.53,10,4,17,0.00
2013-12-17,53.3,37.5,25.0,23.0,16.1,12.0,60,44,23,30.58,30.24,9,3,23,0.00
2013-12-18,51.6,38.5,31.2,20.0,15.8,12.0,56,41,21,30.24,29.83,10,3,14,0.00
2013-12-19,33.1,20.4,9.3,22.0,12.5,5.0,86,73,45,30.30,29.76,10,3,14,0.00
2013-12-20,21.3,8.9,-1.4,14.0,3.2,-8.0,82,78,70,30.34,30.12,7,1,9,0.03
2013-12-21,28.7,15.7,5.2,16.0,7.5,-1.0,79,70,52,30.44,30.08,9,2,12,0.01
2013-12-22,36.3,17.4,4.8,16.0,6.3,-3.0,78,64,29,30.69,30.43,7,2,15,0.02
2013-12-23,44.9,21.1,5.8,22.0,11.1,0.0,80,67,36,30.70,30.43,16,2,27,0.00
2013-12-24,44.1,30.6,16.2,26.0,11.4,3.0,84,47,27,30.62,30.27,19,6,35,0.00
2013-12-25,31.8,21.0,11.1,12.0,6.0,0.0,67,53,37,30.79,30.62,9,3,12,0.00
2013-12-26,46.2,34.8,25.1,24.0,16.8,9.0,72,49,38,30.69,30.54,12,3,22,0.00
2013-12-27,30.4,26.1,21.9,19.0,17.8,17.0,80,71,58,30.42,30.34,5,2,16,0.00
2013-12-28,33.5,25.9,15.7,25.0,17.7,12.0,89,72,46,30.63,30.25,11,2,19,0.00
2013-12-29,31.6,14.7,-0.2,17.0,9.1,-6.0,87,78,53,30.66,30.45,15,2,24,0.03
2013-12-30,39.5,27.6,17.0,18.0,13.1,8.0,74,56,34,30.66,30.37,13,4,15,0.03
2013-12-31,45.1,33.4,20.0,25.0,18.1,12.0,81,55,32,30.38,30.18,15,4,27,0.00
2014-1-1,35.8,24.7,13.3,23.0,13.9,4.0,85,65,30,30.61,30.28,18,3,18,0.00
2014-1-2,38.6,20.8,10.5,18.0,9.4,1.0,76,62,30,30.66,30.42,10,2,13,0.00